Flag for Italy Weather past 2 weeks in Ancona, Italy

Now
37 °F

Passing clouds.


Feels Like: 37 °F
Forecast: 42 / 47 °F
Wind: 2 mph from North

Location: Falconara

Current Time: Jan 27, 2015 at 4:30:04 AM

Latest Report: Jan 27, 2015 at 3:50 AM


Visibility: N/A

Pressure: 30.07 "Hg

Humidity: 70%

Dew point: 28 °F

Location of AnconaLocation

Historic Weather in Ancona — Graph

°F

Ancona temperature yesterday

Maximum temperature yesterday: 46 °F (at 3:50 AM)
Minimum temperature yesterday: 37 °F (at 8:50 PM)
Average temperature yesterday: 43 °F

Past Weeks' High & Low Weather Summary

 TemperatureHumidityPressure
High66 °F (Jan 17, 11:50 AM)100% (Jan 15, 4:50 AM)30.42 "Hg (Jan 15, 4:50 AM)
Low34 °F (Jan 12, 5:50 AM)21% (Jan 12, 1:50 PM)29.62 "Hg (Jan 23, 3:50 AM)
Average47 °F74%30.01 "Hg
* Reported Jan 12 2:50 AM — Jan 27 2:50 AM, Ancona, Weather by CustomWeather, © 2014

Note: Actual official high and low records may vary slightly from our data, if they occured in-between our weather recording intervals... More about our weather records

Advertising

Ancona weather history for previous 24 hours

 ConditionsComfort  
Time TempWeatherWind HumidityBarometerVisibility
2:50 AM
Jan 27
39 °FPassing clouds.6 mph70%30.07 "HgN/A
1:50 AM41 °FPassing clouds.6 mph66%30.07 "HgN/A
12:50 AM39 °FPassing clouds.5 mph75%30.09 "HgN/A
11:50 PM
Jan 26
39 °FPassing clouds.5 mph75%30.09 "HgN/A
10:50 PM39 °FPassing clouds.5 mph75%30.12 "HgN/A
9:50 PM39 °FPassing clouds.5 mph75%30.12 "HgN/A
8:50 PM37 °FPassing clouds.3 mph75%30.12 "HgN/A
7:50 PM43 °FPassing clouds.9 mph61%30.15 "HgN/A
6:50 PM43 °FPassing clouds.12 mph61%30.15 "HgN/A
5:50 PM43 °FPassing clouds.10 mph61%30.15 "HgN/A
4:50 PM43 °FScattered clouds.8 mph66%30.12 "HgN/A
3:50 PM43 °FScattered clouds.1 mph76%30.15 "HgN/A
2:50 PM41 °FScattered showers. Scattered clouds.6 mph87%30.15 "HgN/A
1:50 PM43 °FScattered showers. Scattered clouds.6 mph81%30.15 "HgN/A
12:50 PM43 °FScattered clouds.3 mph81%30.18 "HgN/A
11:50 AM43 °FScattered showers. Scattered clouds.5 mph81%30.18 "HgN/A
10:50 AM43 °FPartly sunny.7 mph81%30.18 "HgN/A
9:50 AM43 °FPartly sunny.1 mph81%30.18 "HgN/A
8:55 AM41 °FLight rain. Broken clouds.6 mph81%30.18 "HgN/A
7:50 AM43 °FLight rain. Partly sunny.15 mph71%30.15 "HgN/A
6:50 AM45 °FLight rain. Passing clouds.9 mph61%30.15 "HgN/A
5:50 AM46 °FPassing clouds.12 mph53%30.12 "HgN/A
4:50 AM46 °FPassing clouds.10 mph57%30.12 "HgN/A
Weather by CustomWeather, © 2014

See weather overviewHow to use our weather pages